Location: Unspecified
(0.0000°N, 0.0000°E)
Time: 01:10:15
(UTC+00:00)

ITAMSAT 1 - Pass Details

Date: 17 December 2017
Orbit: 785 x 796 km, 98.9° (Epoch: 19 July)

Event Time Altitude Azimuth Distance (km) Brightness Sun altitude
Exits shadow 02:51:58 15° 150° (SSE) 2,015 10.2 -41.3°
Drops below altitude 10° 02:53:03 10° 159° (SSE) 2,347 10.6 -41.1°
Sets 02:55:43 0° 171° (S) 3,279 11.3 -40.5°
